Weather History for Laramie, WY

Change the Weather History Date:

Wednesday, February 27, 2013

  Actual Average Record
Temperature  
Mean Temperature 11 °F 26 °F  
Max Temperature 23 °F 38 °F 57 °F (2006)
Min Temperature -2 °F 15 °F -24 °F (1962)
Degree Days  
Heating Degree Days 54 39  
Month to date heating degree days 1195 1121  
Since 1 July heating degree days 5856 6136  
Cooling Degree Days 0 0  
Month to date cooling degree days 0 0  
Year to date cooling degree days 0 0  
Moisture  
Dew Point 3 °F    
Average Humidity 74    
Maximum Humidity 91    
Minimum Humidity 56    
Precipitation  
Precipitation T in 0.02 in 0.22 in (1979)
Month to date precipitation 0.10 0.33  
Year to date precipitation 0.25 0.60  
Sea Level Pressure  
Sea Level Pressure 30.36 in    
Wind  
Wind Speed 6 mph (WNW)    
Max Wind Speed 16 mph    
Max Gust Speed 21 mph    
Visibility 10 miles    
Events      
T = Trace of Precipitation, MM = Missing Value Source: NWS Daily Summary

Daily Weather History Graph

Daily Weather History Graph

Search for Another Location

Airport:

Trip Planner

Search our weather history database for the weather conditions in past years. The results will help you decide how hot, cold, wet, or windy it might be!

Date:

Astronomy

Feb. 27, 2013 Rise Set
Actual Time 6:39 AM MST 5:51 PM MST
Civil Twilight 6:12 AM MST 6:19 PM MST
Nautical Twilight 5:40 AM MST 6:51 PM MST
Astronomical Twilight 5:08 AM MST 7:23 PM MST
Moon 8:17 PM MST (2/27) 7:14 AM MST (2/27)
Length of Visible Light 12h 07m
Length of Day
11h 11m
Waning Gibbous, 96% of the Moon is Illuminated
Feb 27
Waning Gibbous
Mar 4
Last Quarter
Mar 11
New
Mar 19
First Quarter
Mar 27
Full

Hourly Weather History & Observations

Time (MST) Temp. Windchill Dew Point Humidity Pressure Visibility Wind Dir Wind Speed Gust Speed Precip Events Conditions
1:53 AM 6.1 °F - 1.9 °F 83% 30.30 in 10.0 mi Calm Calm - N/A   Mostly Cloudy
2:53 AM 8.1 °F - 6.1 °F 92% 30.28 in 10.0 mi Calm Calm - N/A   Overcast
3:53 AM 7.0 °F -5.7 °F 1.9 °F 80% 30.29 in 10.0 mi West 8.1 mph - N/A   Mostly Cloudy
4:53 AM 3.9 °F -10.4 °F -2.0 °F 76% 30.33 in 10.0 mi West 9.2 mph - N/A   Clear
5:53 AM 3.0 °F - -2.0 °F 80% 30.35 in 10.0 mi Calm Calm - N/A   Clear
6:53 AM -0.9 °F -11.0 °F -4.0 °F 87% 30.39 in 10.0 mi East 4.6 mph - N/A   Clear
7:53 AM -0.0 °F -9.9 °F -2.9 °F 88% 30.40 in 10.0 mi SE 4.6 mph - N/A   Clear
8:53 AM 6.1 °F -5.6 °F 1.0 °F 80% 30.38 in 10.0 mi SSE 6.9 mph - N/A   Clear
9:53 AM 10.0 °F 1.8 °F 3.9 °F 76% 30.39 in 10.0 mi SSE 4.6 mph - N/A   Clear
10:53 AM 17.1 °F - 7.0 °F 65% 30.35 in 10.0 mi Calm Calm - N/A   Clear
11:53 AM 19.9 °F 11.1 °F 7.0 °F 57% 30.32 in 10.0 mi North 6.9 mph - N/A   Clear
12:53 PM 19.0 °F 8.2 °F 9.0 °F 65% 30.34 in 10.0 mi North 9.2 mph - N/A   Clear
1:53 PM 19.9 °F 12.1 °F 12.0 °F 71% 30.33 in 10.0 mi NE 5.8 mph - N/A   Clear
2:53 PM 23.0 °F 15.8 °F 10.9 °F 60% 30.30 in 10.0 mi NNW 5.8 mph - N/A   Clear
3:53 PM 19.9 °F 7.9 °F 9.0 °F 62% 30.32 in 10.0 mi North 11.5 mph - 0.00 in   Clear
4:53 PM 17.1 °F 5.0 °F 9.0 °F 71% 30.36 in 10.0 mi NNW 10.4 mph - N/A   Clear
5:53 PM 10.9 °F 0.2 °F 3.9 °F 73% 30.41 in 10.0 mi NNW 6.9 mph - N/A   Clear
6:53 PM 9.0 °F 2.4 °F -0.0 °F 67% 30.45 in 10.0 mi SW 3.5 mph - N/A   Clear
7:53 PM 7.0 °F -5.7 °F -0.0 °F 73% 30.45 in 10.0 mi SW 8.1 mph - N/A   Clear
8:53 PM 3.9 °F -6.9 °F -2.0 °F 76% 30.45 in 10.0 mi SSE 5.8 mph - N/A   Clear
9:53 PM 7.0 °F -8.3 °F -0.9 °F 70% 30.40 in 10.0 mi WSW 11.5 mph - N/A   Clear
10:53 PM 8.1 °F -4.3 °F -0.9 °F 67% 30.37 in 10.0 mi WSW 8.1 mph - N/A   Clear
11:53 PM 3.9 °F -8.2 °F -2.0 °F 76% 30.39 in 10.0 mi East 6.9 mph - N/A   Clear